Retour au catalogue

KUIPER-00054

ActifCommunicationsLEO
NORAD 64514·PAYLOAD·🇺🇸 United States

Lancé Jun 23, 2025 depuis Cape Canaveral Space Force Station

Loading…

Prochains Passages (prochaines 24 heures)

TLE

FraisSource: CelesTrak SupGP

Époque: Sep 14, 2026, 20:29 UTC

1 64514C 25134Q   26257.85394676  .00001701  00000+0  22270-3 0  2576
2 64514  51.8968 101.5544 0000963 108.2937 192.5628 14.79919417    13

Suivez KUIPER-00054 en temps réel avec AllMySat

Download on the App Store